[[{"header":{"parameterUnit":"m.s-1","parameterCategory":1,"la1":30.2992,"la2":30.254,"lo1":-89.0895,"lo2":-89.0443,"dy":0.0025,"dx":0.0025,"nx":19,"ny":19,"refTime":"2026-03-20T03:00:00:Z","depth":0,"parameterNumber":2,"parameterNumberName":"U-component_of_WINDS"},"data":[0,0,0,3.8783,3.8785,3.8851,3.8851,3.8957,3.8958,0,0,0,0,0,0,0,0,0,0,0,3.8778,3.8779,3.8783,3.8785,3.8851,3.8851,3.8957,3.8958,0,0,0,0,0,0,0,0,0,0,0,3.8777,3.8778,3.878,3.8785,3.8851,3.8851,3.8956,3.8899,0,0,0,0,0,0,0,0,0,0,3.8831,3.884,3.8778,3.878,3.8786,3.8851,3.8851,3.8896,3.8902,3.8936,0,3.8971,0,3.8966,3.8966,3.8967,0,0,0,3.8775,3.8834,3.8839,3.878,3.8787,3.8851,3.8818,3.8899,3.8907,3.8945,3.8972,3.8975,3.8968,3.8967,3.8968,3.9196,3.9197,0,0,3.8771,3.8797,3.8834,3.8845,3.8837,3.8816,3.8821,3.8903,3.8934,3.8972,3.8978,3.897,3.8968,3.8969,3.9194,3.9196,0,0,0,3.8768,3.8795,3.8797,3.8841,3.8852,3.8819,3.8823,3.8931,3.8929,3.8978,3.8971,3.8969,3.897,3.9193,3.9195,3.9294,0,0,0,3.8765,3.8793,3.8796,3.8813,3.8851,3.8892,3.8849,3.8924,3.8932,3.897,3.8969,3.8972,3.9191,3.9194,3.9287,3.9336,0,0,0,3.8769,3.8793,3.8808,3.8815,3.8844,3.889,3.8893,3.8925,3.8928,3.8967,3.8972,3.919,3.9193,3.9282,3.9327,3.94,0,0,0,3.878,3.8898,3.881,3.8938,3.8844,3.8952,3.8892,3.8973,3.9018,3.897,3.9191,3.9195,3.928,3.9321,3.9394,3.9464,3.9497,0,0,3.8943,3.8919,3.8992,3.8915,3.9045,3.894,3.9084,3.9103,3.9083,3.9159,3.9164,3.929,3.9326,3.9399,3.9676,3.9702,0,0,0,3.9052,3.9105,3.9134,3.9177,3.9193,3.9208,3.9201,3.9207,3.9269,3.9128,3.9337,3.9358,3.9399,3.9431,3.9454,3.9486,3.9212,3.9211,3.9211,3.9321,3.9287,3.9404,3.9377,3.942,3.9409,3.944,3.9445,3.9403,3.9452,3.9473,3.9646,3.9685,3.9701,3.9735,3.9511,3.9511,3.9511,3.9512,3.9553,3.962,3.9555,3.9645,3.9608,3.9684,3.9676,3.9642,3.9705,3.9628,3.9663,3.9579,3.9731,3.9758,3.9519,3.9518,3.9517,3.9516,3.9515,3.9722,3.9747,3.9752,3.9807,3.9854,3.9823,3.9885,3.9851,3.9819,3.9854,3.987,3.9868,3.9858,3.9865,3.9865,3.9866,3.9866,3.9867,3.9867,3.9894,3.9895,3.9951,3.9974,3.9994,4.0017,4.0005,4.0024,4.0036,4.0006,4.0006,3.9955,3.9753,3.9701,3.9876,3.9874,3.9873,3.9872,3.9872,4.0137,4.0075,4.0162,4.0182,4.0203,4.0249,4.0204,4.0245,4.0256,4.0287,4.0228,4.0085,4.0058,4.004,3.9996,4.0237,4.0237,4.0237,4.0237,4.0276,4.0259,4.0336,4.037,4.0399,4.0366,4.0461,4.0452,4.0433,4.0436,4.0397,4.0337,4.0321,4.0303,4.0279,4.0237,4.0534,4.0535,4.0535,4.0421,4.0404,4.0492,4.0471,4.0483,4.0495,4.0582,4.0622,4.0588,4.0546,4.0437,4.0425,4.0328,4.0299,4.0253,4.0217,4.014,0,0]},{"header":{"parameterUnit":"m.s-1","parameterCategory":1,"la1":30.2992,"la2":30.254,"lo1":-89.0895,"lo2":-89.0443,"dy":0.0025,"dx":0.0025,"nx":19,"ny":19,"refTime":"2026-03-20T03:00:00:Z","depth":0,"parameterNumber":3,"parameterNumberName":"V-component_of_WINDS"},"data":[0,0,0,3.7772,3.7776,3.7973,3.7974,3.8212,3.8214,0,0,0,0,0,0,0,0,0,0,0,3.771,3.7711,3.7772,3.7777,3.7973,3.7974,3.8212,3.8214,0,0,0,0,0,0,0,0,0,0,0,3.7709,3.7711,3.7712,3.7778,3.7973,3.7974,3.8211,3.8067,0,0,0,0,0,0,0,0,0,0,3.7878,3.7817,3.771,3.7713,3.7779,3.7972,3.7974,3.806,3.8076,3.8119,0,3.8158,0,3.819,3.823,3.823,0,0,0,3.778,3.7803,3.7861,3.7713,3.778,3.7972,3.7885,3.8069,3.8087,3.814,3.8161,3.817,3.8194,3.8231,3.8232,3.8472,3.8473,0,0,3.7769,3.7742,3.7848,3.7872,3.7844,3.7879,3.7891,3.808,3.8101,3.8162,3.8176,3.8198,3.8233,3.8234,3.8471,3.8472,0,0,0,3.7736,3.7734,3.7787,3.7862,3.7898,3.7884,3.7899,3.8093,3.8112,3.8179,3.8201,3.8234,3.8237,3.847,3.8472,3.8493,0,0,0,3.773,3.7715,3.7782,3.7767,3.7895,3.7999,3.7907,3.8099,3.8122,3.8199,3.8234,3.8239,3.8469,3.8471,3.849,3.8507,0,0,0,3.7698,3.7711,3.7738,3.7766,3.7849,3.7996,3.8027,3.8105,3.8135,3.8231,3.824,3.8468,3.8471,3.8487,3.8503,3.856,0,0,0,3.7657,3.7755,3.7738,3.7856,3.7847,3.8009,3.8026,3.8147,3.8232,3.8235,3.8469,3.8471,3.8487,3.85,3.8557,3.8602,3.8619,0,0,3.7766,3.7767,3.7839,3.7829,3.7986,3.7981,3.8141,3.8244,3.8277,3.8404,3.8411,3.8491,3.8502,3.8559,3.8726,3.8739,0,0,0,3.7864,3.7914,3.7962,3.8042,3.8124,3.8193,3.8275,3.8313,3.8422,3.8338,3.8529,3.8537,3.8571,3.8594,3.8605,3.8635,3.8481,3.8481,3.8481,3.7978,3.8016,3.8135,3.8195,3.8272,3.8355,3.8419,3.8484,3.85,3.8544,3.8581,3.8678,3.8704,3.8712,3.8743,3.861,3.861,3.861,3.861,3.8139,3.8215,3.8233,3.8355,3.8393,3.8495,3.8576,3.8584,3.8682,3.8653,3.8686,3.8649,3.8726,3.8754,3.8612,3.8611,3.8611,3.8611,3.8611,3.8217,3.8259,3.8304,3.8421,3.8507,3.8564,3.8658,3.869,3.872,3.8752,3.8793,3.8792,3.8794,3.8769,3.877,3.877,3.877,3.8771,3.8771,3.8279,3.8328,3.8404,3.8497,3.8551,3.8626,3.8707,3.876,3.8827,3.8842,3.8843,3.8851,3.8727,3.8694,3.8776,3.8775,3.8775,3.8774,3.8774,3.8425,3.8396,3.8513,3.8567,3.8677,3.8758,3.8797,3.8902,3.8951,3.8995,3.8997,3.8901,3.8904,3.8896,3.8868,3.8991,3.8991,3.8991,3.8991,3.8489,3.8494,3.8619,3.8702,3.8788,3.8834,3.8961,3.9024,3.9085,3.9116,3.9103,3.907,3.906,3.9069,3.9057,3.9032,3.9193,3.9193,3.9194,3.8579,3.8594,3.8697,3.8757,3.8845,3.8918,3.9038,3.9131,3.9193,3.9202,3.9141,3.9132,3.9079,3.906,3.9067,3.9047,3.9001,0,0]}]]